Regional Weather Roundup
Issued by NWS

Home | Current Version | Previous Version | Graphics & Text | Print | Product List | Glossary On
Versions: 1 2 3 4 5 6 7 8 9 10 11 12 13 14 15 16 17 18 19 20 21 22 23 24 25 26 27 28 29 30 31 32 33 34 35 36 37 38 39 40 41 42 43 44 45 46 47 48 49 50
000
ASUS43 KLOT 291210
RWRIL

ILLINOIS REGIONAL WEATHER ROUNDUP
NATIONAL WEATHER SERVICE CHICAGO/ROMEOVILLE IL
600 AM CST THU JAN 29 2015

NOTE: "FAIR" INDICATES FEW OR NO CLOUDS BELOW 12,000 FEET WITH NO
SIGNIFICANT WEATHER AND/OR OBSTRUCTIONS TO VISIBILITY.

* THESE STATIONS ARE NOT UNDER NWS QUALITY CONTROL. THEY ALSO MAY NOT
  REPORT WEATHER SUCH AS PRECIPITATION OR FOG.

ILZ001-002-007-009-015-016-024-291300-
NORTHWEST ILLINOIS

CITY           SKY/WX    TMP DP  RH WIND       PRES   REMARKS
MOLINE         CLOUDY    35  30  82 NW17G23   29.84R WCI  25
6HR MIN TEMP:  33; 6HR MAX TEMP:  40;

STERLING*      CLOUDY    34  28  80 NW16      29.79R WCI  23
SAVANNA*       CLOUDY    34  30  85 NW13G20   29.83R FOG     WCI  25
$$

ILZ003-004-008-010-011-017-018-291300-
NORTH CENTRAL ILLINOIS

CITY           SKY/WX    TMP DP  RH WIND       PRES   REMARKS
ROCKFORD       CLOUDY    33  27  78 N10       29.78R WCI  25
6HR MIN TEMP:  28; 6HR MAX TEMP:  35;

FREEPORT*      CLOUDY    32  28  88 NW15      29.80R WCI  21
ROCHELLE*      CLOUDY    31  29  92 NW7       29.76R WCI  24
DE KALB*       CLOUDY    31  28  89 NW7       29.72R WCI  24
PERU*          CLOUDY    32  30  94 NW9       29.75R WCI  24
$$

ILZ005-006-012>014-019>023-291300-
NORTHEAST ILLINOIS

CITY           SKY/WX    TMP DP  RH WIND       PRES   REMARKS
CHICAGO-OHARE  CLOUDY    33  28  81 NW6       29.70R WCI  28
6HR MIN TEMP:  31; 6HR MAX TEMP:  35;

CHICAGO-MIDWAY CLOUDY    36  29  75 SW7       29.70R WCI  30
6HR MIN TEMP:  36; 6HR MAX TEMP:  39;

AURORA         CLOUDY    33  28  81 W8        29.72R WCI  26
6HR MIN TEMP:  29; 6HR MAX TEMP:  36;

LANSING*       PTCLDY    31  27  83 SW3       29.70R
JOLIET*        MOCLDY    31  28  89 CALM      29.71R
WAUKEGAN       CLOUDY    33  27  78 NW3       29.71R
6HR MIN TEMP:  30; 6HR MAX TEMP:  34;

DUPAGE AIRPORT CLOUDY    33  28  81 VRB6      29.71R WCI  28
6HR MIN TEMP:  27; 6HR MAX TEMP:  35;

KANKAKEE*      PTCLDY    35  32  89 SW7       29.69S WCI  29
WHEELING       CLOUDY    34  28  79 NW5       29.73R WCI  30
6HR MIN TEMP:  31; 6HR MAX TEMP:  36;

MORRIS*        PTCLDY    32  30  92 CALM      29.69S
ROMEOVILLE*    MOCLDY    32  28  84 CALM      29.71R
NORTHERLY ISL    N/A     38  28  68 W6          N/A  WCI  33
$$

LMZ740>746-291300-
SOUTHERN LAKE MICHIGAN

STATION/POSITION SKY/WX   TEMP    WIND        PRES    VSBY  WAVE
                          AIR SEA DIR/SP/G                  HT/PER
                          (F)     (DEG/KT/KT) (MB)    (MI)  (FT/S)
WAUKEGAN HARBOR            32     340/  2/  8   N/A
HARRISON CRIB              37     200/ 10/ 14   N/A
BURNHAM HARBOR             38     240/  5/  8   N/A
CALUMET HARBOR             36     200/  5/  7   N/A
MICHIGAN CITY              37     140/ 12/ 17   N/A
$$

ILZ025>027-034>036-040-047-049-050-058-095>099-291300-
WEST-CENTRAL ILLINOIS

CITY           SKY/WX    TMP DP  RH WIND       PRES   REMARKS
QUINCY         CLOUDY    37  32  82 NW23G33   29.94R WCI  26
GALESBURG*     CLOUDY    34  32  92 NW18G25   29.84R WCI  23
MACOMB*        CLOUDY    36  33  88 NW25G31   29.90R WCI  23
JACKSONVILLE*  CLOUDY    41  36  81 W22G29    29.88R
PITTSFIELD*    CLOUDY    39  34  81 W22G32    29.94R WCI  29
$$

ILZ028>032-037-038-041>044-048-051>054-059>061-291300-
CENTRAL ILLINOIS

CITY           SKY/WX    TMP DP  RH WIND       PRES   REMARKS
PONTIAC        MOCLDY    35  33  92 W8        29.71R WCI  29
BLOOMINGTON    CLOUDY    39  35  85 W18       29.73R WCI  29
DECATUR        CLOUDY    44  36  73 W22G32    29.77R
PEORIA         MOCLDY    39  32  76 NW15G31   29.78R WCI  31
6HR MIN TEMP:  38; 6HR MAX TEMP:  42;

LACON*         CLOUDY    36  32  87 NW20G28   29.75R WCI  25
LINCOLN*       MOCLDY    40  34  79 W13G22    29.78R
SPRINGFIELD    CLOUDY    41  33  73 NW23G32   29.83R
6HR MIN TEMP:  41; 6HR MAX TEMP:  46;

TAYLORVILLE    CLOUDY    41  34  75 NW23G31   29.82R
$$

ILZ033-039-045-046-055>057-062-063-291300-
EAST-CENTRAL ILLINOIS

CITY           SKY/WX    TMP DP  RH WIND       PRES   REMARKS
CHAMPAIGN      CLOUDY    40  34  79 SW16      29.73R
DANVILLE*      MOCLDY    40  33  76 SW15G21   29.70R
RANTOUL*       CLOUDY    40  35  83 SW13      29.71S
MATTOON        CLOUDY    42  33  70 SW7       29.76R
PARIS*         CLOUDY    40  34  78 SW15      29.76R
$$

ILZ079-100>102-291300-
SOUTHWEST ILLINOIS

CITY           SKY/WX    TMP DP  RH WIND       PRES   REMARKS
BELLEVILLE     CLEAR     49  39  68 NW17G25   29.86R
CAHOKIA*       MOCLDY    49  38  65 NW17G30   29.89R
SPARTA*        CLEAR     46  38  74 SW7       29.86R
$$

ILZ064>066-069>071-074>076-080>082-084>086-088>090-092>094-291300-
SOUTH-CENTRAL ILLINOIS

CITY           SKY/WX    TMP DP  RH WIND       PRES   REMARKS
CARBONDALE     CLEAR     50  39  66 SW14      29.86R
6HR MIN TEMP:  48; 6HR MAX TEMP:  51;

CAIRO*         CLEAR     53  42  64 SW15      29.90R
EFFINGHAM*     CLOUDY    47  35  64 SW16G23   29.80R
MARION         PTCLDY    50  39  66 SW12G18   29.86R
MT. VERNON     PTCLDY    46  37  71 SW17G23   29.83R
CENTRALIA*     CLEAR     47  37  69 SW14      29.82R
SALEM*         PTCLDY    50  40  67 SW14G21   29.81R
METROPOLIS*    CLEAR     50  39  65 SW8       29.89R
$$

ILZ067-068-072-073-078-083-087-091-291300-
SOUTHEAST ILLINOIS

CITY           SKY/WX    TMP DP  RH WIND       PRES   REMARKS
LAWRENCEVILLE  CLOUDY    43  36  76 S10       29.80S
FLORA*         CLOUDY    46  37  72 SW9       29.81R
FAIRFIELD*     CLOUDY    48  38  68 SW7       29.81R
HARRISBURG*    MOCLDY    51  39  63 SW16G23   29.86R
ROBINSON*      CLOUDY    42  35  74 S8        29.79F
CARMI*         CLOUDY    53  41  62 SW18G24   29.83S
$$

ABBREVIATIONS USED IN REMARKS
   TC - TEMPERATURE IN CELSIUS
  WCI - WIND CHILL INDEX
   HX - HEAT INDEX
  VSB - VISIBILITY
$$



USA.gov is the U.S. government's official web portal to all federal, state and local government web resources and services.